Location: Agadir Mansour Mhndou
(31.2424°N, 8.7730°W)
Time: 19:18:31
(UTC+00:00)

Cosmos 389 Rocket - Pass Details

Date: 16 October 2021
Orbit: 438 x 468 km, 81.1° (Epoch: 08 December)

Event Time Altitude Azimuth Distance (km) Brightness Sun altitude
Rises 18:53:39 0° 198° (SSW) 2,409 6.4 -11.8°
Reaches altitude 10° 18:55:45 10° 204° (SSW) 1,543 5.5 -12.2°
Maximum altitude 18:59:00 46° 279° (W) 595 3.5 -12.9°
Drops below altitude 10° 19:02:16 10° 355° (N) 1,554 5.2 -13.6°
Sets 19:04:24 0° 1° (N) 2,429 6.1 -14.1°
